DW2182 Weather Reports


Display with metric or nautical units.
time (UTC)temp
F
wind
direction
speed
MPH
gust
MPH
rain 1hr
in
rain 24hr
in
rain mn
in
humidity
%
barometer
mb
20260903084516 74 90 3.0 7.0 0.00 0.13 0.00 94 1010.1
20260903083515 74 90 4.0 9.0 0.00 0.15 0.00 94 1010.0
20260903082516 74 90 4.0 7.0 0.00 0.16 0.00 95 1010.1
20260903081516 74 90 4.0 7.0 0.00 0.17 0.00 95 1009.9
20260903080515 74 0.0 0.0 0.00 0.19 0.00 95 1009.3
20260903075516 74 0.0 0.0 0.00 0.21 0.00 95 1009.5
20260903074516 74 0.0 0.0 0.00 0.23 0.00 95 1009.5
20260903073515 74 0.0 0.0 0.00 0.25 0.00 95 1009.5
20260903072515 74 0.0 0.0 0.00 0.27 0.00 95 1009.6
20260903071516 74 0.0 0.0 0.00 0.29 0.00 95 1009.7
20260903070517 74 0.0 0.0 0.00 0.32 0.00 95 1009.7
20260903065516 74 0.0 0.0 0.00 0.35 0.00 94 1009.7
20260903064518 74 0.0 0.0 0.00 0.39 0.00 95 1009.8
20260903063516 74 0.0 0.0 0.00 0.42 0.00 95 1009.8
20260903062517 74 0.0 0.0 0.00 0.46 0.00 95 1009.7
20260903061516 74 0.0 0.0 0.00 0.50 0.00 94 1009.6
20260903060518 74 0.0 0.0 0.00 0.54 0.00 94 1009.5
20260903055518 74 0.0 0.0 0.00 0.58 0.00 94 1009.6
20260903054516 74 0.0 0.0 0.00 0.62 0.00 94 1009.6
20260903053517 75 0.0 0.0 0.00 0.66 0.00 94 1009.8
20260903052517 75 0.0 0.0 0.00 0.70 0.00 93 1009.8
20260903051517 75 0.0 0.0 0.00 0.76 0.00 93 1009.8
20260903050517 75 0.0 0.0 0.00 0.83 0.00 92 1009.9
20260903045516 75 0.0 0.0 0.00 0.88 0.86 92 1009.8
20260903044515 76 0.0 0.0 0.00 0.91 0.86 92 1009.8
20260903043516 76 0.0 0.0 0.00 0.96 0.86 92 1009.9
20260903042536 76 0.0 0.0 0.00 1.07 0.86 92 1009.8
20260903041516 76 0.0 0.0 0.00 1.09 0.86 92 1009.9
20260903040516 76 0.0 0.0 0.00 1.09 0.86 91 1009.8
20260903035536 76 0.0 0.0 0.00 1.09 0.86 91 1010.0
20260903034516 77 0.0 0.0 0.00 1.09 0.86 91 1010.0
20260903033515 77 0.0 0.0 0.00 1.09 0.86 90 1010.1
20260903032515 77 0.0 0.0 0.00 1.09 0.86 90 1010.1
20260903031516 77 0.0 0.0 0.00 1.09 0.86 90 1010.0
20260903030538 77 0.0 0.0 0.00 1.09 0.86 89 1010.0
20260903025518 77 0.0 0.0 0.00 1.09 0.86 89 1010.0
20260903024517 77 0.0 1.0 0.00 1.09 0.86 88 1010.0
20260903023518 78 0.0 1.0 0.00 1.09 0.86 88 1009.9
20260903022518 78 0.0 1.0 0.00 1.09 0.86 88 1009.9
20260903021517 78 0.0 0.0 0.00 1.09 0.86 87 1009.8
20260903020517 79 0.0 0.0 0.00 1.09 0.86 86 1009.9
20260903015518 79 0.0 0.0 0.00 1.09 0.86 86 1009.7
20260903014517 79 0.0 0.0 0.00 1.09 0.86 85 1009.6
20260903013517 79 0.0 0.0 0.00 1.09 0.86 84 1009.5
20260903012538 80 0.0 0.0 0.00 1.09 0.86 84 1009.4
20260903011516 80 0.0 0.0 0.00 1.09 0.86 83 1009.4
20260903010517 81 0.0 0.0 0.00 1.09 0.86 82 1009.3
20260903005517 81 0.0 0.0 0.00 1.09 0.86 81 1009.2
20260903004537 82 0.0 1.0 0.00 1.09 0.86 79 1009.3
20260903003517 82 0.0 0.0 0.00 1.09 0.86 78 1009.4
20260903002517 83 0.0 1.0 0.00 1.09 0.86 77 1009.5
20260903001517 83 0.0 2.0 0.00 1.09 0.86 76 1009.4
20260903000537 84 0.0 1.0 0.00 1.09 0.86 75 1009.6
20260902235518 85 45 1.0 2.0 0.00 1.09 0.86 72 1009.6
20260902234517 85 0.0 3.0 0.00 1.09 0.86 71 1009.7
20260902233517 85 68 1.0 2.0 0.00 1.09 0.86 70 1009.5
20260902232517 86 68 2.0 4.0 0.00 1.09 0.86 69 1009.5
20260902231537 86 90 2.0 4.0 0.00 1.09 0.86 67 1009.7
20260902230517 87 68 3.0 9.0 0.00 1.09 0.86 68 1009.7
20260902225517 87 90 4.0 7.0 0.00 1.09 0.86 67 1009.7
20260902224517 87 68 3.0 9.0 0.00 1.09 0.86 66 1009.6
20260902223517 88 90 4.0 9.0 0.00 1.09 0.86 66 1009.7
20260902222517 88 90 2.0 5.0 0.00 1.09 0.86 65 1009.8
20260902221517 88 68 2.0 7.0 0.00 1.09 0.86 64 1009.8
20260902220518 88 90 2.0 6.0 0.00 1.09 0.86 64 1009.8
20260902215517 89 90 3.0 8.0 0.00 1.09 0.86 63 1009.9
20260902214517 89 90 3.0 9.0 0.00 1.09 0.86 61 1010.0
20260902213537 89 90 4.0 10.0 0.00 1.09 0.86 62 1010.0
20260902212517 89 90 4.0 10.0 0.00 1.09 0.86 61 1010.0
20260902211517 90 90 6.0 12.0 0.00 1.09 0.86 60 1010.1
20260902210517 91 90 6.0 15.0 0.00 1.09 0.86 59 1010.3
20260902205517 91 90 6.0 11.0 0.00 1.09 0.86 59 1010.4
20260902204517 90 90 4.0 8.0 0.00 1.09 0.86 61 1010.4
20260902203517 89 90 4.0 9.0 0.00 1.09 0.86 59 1010.4
20260902202517 89 90 3.0 8.0 0.00 1.09 0.86 60 1010.4
20260902201517 89 68 2.0 5.0 0.00 1.09 0.86 63 1010.4
20260902200517 90 90 2.0 4.0 0.00 1.09 0.86 67 1010.6
20260902195517 89 90 4.0 8.0 0.00 1.09 0.86 66 1010.8
20260902194517 89 90 3.0 8.0 0.00 1.09 0.86 69 1010.9
20260902193517 88 90 3.0 8.0 0.00 1.09 0.86 68 1010.9
20260902192517 87 68 2.0 5.0 0.00 1.09 0.86 71 1011.0
20260902191517 88 90 5.0 10.0 0.00 1.09 0.86 70 1011.1
20260902190517 88 90 5.0 10.0 0.00 1.09 0.86 68 1011.2
20260902185517 87 90 3.0 7.0 0.00 1.09 0.86 69 1011.3
20260902184517 85 90 3.0 7.0 0.00 1.09 0.86 71 1011.3
20260902183537 84 45 1.0 3.0 0.00 1.09 0.86 74 1011.4
20260902182517 84 90 3.0 7.0 0.00 1.09 0.86 72 1011.5
20260902181537 85 90 1.0 3.0 0.00 1.09 0.86 72 1011.6
20260902180537 84 90 2.0 6.0 0.00 1.09 0.86 77 1011.6
20260902175517 82 68 1.0 3.0 0.00 1.09 0.86 75 1011.8
20260902174517 82 0.0 2.0 0.00 1.09 0.86 75 1011.9
20260902173517 82 68 1.0 4.0 0.01 1.09 0.86 76 1012.1
20260902172517 82 68 2.0 3.0 0.01 1.09 0.86 79 1012.2
20260902171557 81 45 1.0 3.0 0.01 1.09 0.86 77 1012.1
20260902170517 81 68 1.0 5.0 0.01 1.09 0.86 78 1012.3
20260902165517 80 45 1.0 4.0 0.01 1.09 0.86 77 1012.2
20260902164517 80 158 1.0 3.0 0.01 1.09 0.86 77 1012.2
20260902163517 79 158 2.0 4.0 0.00 1.08 0.85 78 1012.4
20260902162516 78 0 1.0 4.0 0.00 1.08 0.85 82 1012.5
20260902161517 77 0 2.0 4.0 0.00 1.08 0.85 80 1012.7
20260902160517 76 0.0 0.0 0.00 1.08 0.85 82 1012.6
20260902155537 77 0 1.0 4.0 0.01 1.08 0.85 82 1012.7
20260902154537 76 135 2.0 4.0 0.01 1.08 0.85 84 1012.5
20260902153517 76 135 1.0 2.0 0.01 1.08 0.85 84 1012.8
20260902152517 75 0 1.0 4.0 0.01 1.08 0.85 85 1012.7
20260902151517 74 90 2.0 4.0 0.01 1.08 0.85 87 1012.5
20260902150517 73 0.0 0.0 0.01 1.08 0.85 90 1012.1
20260902145517 73 68 1.0 5.0 0.00 1.07 0.84 90 1011.7
20260902144516 72 45 1.0 3.0 0.00 1.07 0.84 91 1011.5
20260902143517 71 0.0 0.0 0.00 1.07 0.84 92 1011.5
20260902142517 71 0.0 0.0 0.01 1.07 0.84 92 1011.6
20260902141537 70 0.0 0.0 0.01 1.07 0.84 93 1011.5
20260902140516 70 0.0 0.0 0.01 1.07 0.84 94 1011.5
20260902135517 69 68 1.0 3.0 0.01 1.07 0.84 94 1011.4
20260902134517 69 68 1.0 3.0 0.01 1.07 0.84 95 1011.4
20260902133537 69 68 1.0 3.0 0.01 1.07 0.84 95 1011.7
20260902132516 68 45 1.0 3.0 0.00 1.06 0.83 96 1011.5
20260902131536 68 45 1.0 3.0 0.00 1.06 0.83 96 1011.5
20260902130516 68 0.0 0.0 0.01 1.06 0.83 97 1011.6
20260902125517 67 0.0 2.0 0.01 1.06 0.83 97 1011.6
20260902124557 67 0.0 0.0 0.01 1.06 0.83 97 1011.6
20260902123516 67 0.0 0.0 0.01 1.06 0.83 97 1011.7
20260902122517 67 0.0 0.0 0.01 1.06 0.83 97 1011.7
20260902121517 66 0.0 0.0 0.02 1.06 0.83 97 1011.3
20260902120517 67 0.0 0.0 0.01 1.05 0.82 97 1011.5
20260902115517 67 0.0 0.0 0.01 1.05 0.82 97 1011.6
20260902114517 67 0.0 0.0 0.02 1.05 0.82 97 1011.5
20260902113537 67 0.0 0.0 0.02 1.05 0.82 97 1011.4
20260902112517 67 0.0 0.0 0.02 1.05 0.82 97 1011.2
20260902111536 67 68 1.0 3.0 0.02 1.04 0.81 96 1011.3
20260902110516 67 68 1.0 3.0 0.02 1.04 0.81 96 1011.4
20260902105517 67 68 1.0 4.0 0.03 1.04 0.81 96 1011.5
20260902104537 67 68 1.0 4.0 0.02 1.03 0.80 96 1011.6
20260902103537 67 0.0 1.0 0.03 1.03 0.80 96 1011.8
20260902102517 67 68 1.0 2.0 0.04 1.03 0.80 96 1012.0
20260902101516 67 68 1.0 2.0 0.03 1.02 0.79 96 1012.4
20260902100516 67 68 1.0 2.0 0.04 1.02 0.79 96 1012.5
20260902095516 67 68 1.0 3.0 0.04 1.01 0.78 96 1012.4
20260902094516 67 68 1.0 2.0 0.05 1.01 0.78 96 1012.3
20260902093516 67 68 1.0 2.0 0.06 1.00 0.77 96 1012.4
20260902092517 67 90 2.0 5.0 0.06 0.99 0.76 96 1012.2
20260902091516 67 0.0 2.0 0.07 0.99 0.76 96 1011.9
20260902090516 67 68 1.0 3.0 0.08 0.98 0.75 96 1011.8
20260902085516 67 68 2.0 4.0 0.09 0.97 0.74 96 1012.2